TIANTUO 2

Last updated on July 6, 2021, 3:44 p.m. UTC

1 40144U 14053B   21187.20778134  .00001157  00000-0  35617-4 0  9997
2 40144  97.2234 269.1023 0011833  16.1637  10.9316 15.35601378381938
UTC
Height (km)
Latitude
Longitude
Inclination
Orbital Period
UTC large
Height (km)
Speed (km/s)
/
Latitude / Longitude
Inclination (degrees)
Orbital Period (minutes)
Azimuth
Elevation
Range (km)
Doppler Factor
iOS Compass Heading
iOS Angle